Simultaneous Nadir Overpasses (SNOs) Predictions

Prediction of SNOs between AQUA and GOES-15 Satellite Orbit:

Table of predicted SNOs for the next 14.0 days since TLE Epoch: 5/21/2022
Index Date Time (AQUA) AQUA Lat,Lon GOES-15 Lat,Lon Distance(km) Time Diff (sec)
1 05/22/2022 10:11:29 0.21,-128.30 0.06,-127.69 70.54 80
2 05/24/2022 09:58:59 -0.46,-125.27 0.07,-127.77 284.24 80
3 05/24/2022 22:20:19 -0.59,-130.45 -0.05,-127.78 302.26 80
4 05/26/2022 22:07:48 0.05,-127.40 -0.05,-127.86 52.61 80
5 05/28/2022 21:55:17 0.73,-124.36 -0.05,-127.94 407.23 80
6 05/29/2022 10:16:27 0.39,-129.49 0.03,-127.96 174.03 80
7 05/31/2022 10:03:56 -0.33,-126.45 0.03,-128.03 180.01 80
8 05/31/2022 22:25:15 -0.74,-131.62 -0.01,-128.04 407.38 80
9 06/02/2022 22:12:42 -0.11,-128.57 -0.01,-128.10 53.54 80
